Wind_Speed
8 9 8 9 8 8 8 7 7 6 6 6 6 6 6 6 6 6 6 6 7 7 7 7 7 8 8 8 8 8 7 7 7 8 8 8 8 9 9 9 9 9 9 8
9 9 9 9 9 9 9 9 8 8 8 8 7 7 7 7 7 6 6 5 6 7 7 7 7 8 9 9 9 9 9 9 8 9 9 9 9 9 10 10 10 10 10 9
9 9 9 9 10 10 9 9 9 10 10 10 9 9 9 8 8 7 6 6 6 7 8 8 9 9 10 10 11 10 10 10 10 10 10 10 10 11 11 11 11 10 10 10
9 9 10 10 10 10 10 10 10 11 11 11 11 11 10 9 9 8 7 7 7 8 9 10 10 10 11 11 11 11 11 12 12 12 12 11 12 12 12 12 11 11 11 10
10 9 10 10 10 10 10 10 11 12 12 12 12 12 10 9 10 9 9 9 9 9 10 11 12 12 12 12 12 13 12 13 13 13 13 13 13 13 13 13 13 12 12 12
11 11 11 11 11 11 10 11 13 13 13 13 12 13 11 10 9 10 10 11 11 11 12 12 13 13 13 13 14 14 14 14 14 15 15 14 14 14 14 13 14 13 13 13
11 11 12 12 11 11 11 12 13 13 14 14 14 14 12 11 11 11 12 13 13 13 13 14 14 15 15 15 15 15 15 16 16 16 16 16 16 15 14 14 14 14 14 14
12 11 12 13 13 12 13 14 14 14 15 16 16 16 14 14 13 13 13 14 15 15 15 16 16 16 16 17 17 17 17 17 17 17 17 17 16 16 16 16 16 16 16 16
13 12 12 13 13 13 13 15 15 16 17 17 18 18 17 16 16 16 15 15 16 16 17 17 18 17 18 17 17 17 18 19 18 17 17 17 17 17 17 17 17 16 16 16
13 14 13 14 14 14 14 14 16 18 19 19 19 19 18 18 18 18 18 18 18 18 19 19 19 19 19 19 19 19 19 19 19 19 18 17 17 17 17 17 17 17 17 17
14 14 14 14 15 15 15 15 16 18 20 20 21 21 19 19 19 19 19 19 19 19 20 20 20 20 20 20 20 20 20 20 20 20 20 19 18 18 18 18 18 18 18 18
14 14 15 14 15 16 17 17 17 18 20 22 23 22 20 20 20 20 20 20 20 20 20 20 21 21 21 21 21 21 21 21 21 21 20 20 19 19 19 19 19 19 19 18
15 16 16 16 16 16 18 18 19 20 21 22 23 23 21 20 21 20 20 20 20 20 20 20 21 21 21 21 21 21 21 21 21 21 21 20 20 20 20 20 20 19 19 19
17 18 18 18 17 18 19 20 20 21 22 22 22 23 21 21 21 21 21 21 21 21 20 20 21 21 22 22 22 22 21 21 21 21 21 21 21 20 20 20 20 19 19 19
19 19 19 19 19 19 19 20 21 21 22 22 22 22 21 21 22 22 21 21 21 21 21 22 22 22 22 22 22 22 21 21 21 22 22 22 21 20 20 21 20 19 19 19
19 20 20 20 21 21 21 20 21 21 21 22 22 21 21 23 23 23 22 22 22 22 22 22 23 23 23 23 23 22 22 21 21 21 22 21 21 21 21 21 20 19 19 19
20 21 21 21 21 22 22 21 21 21 21 22 22 22 21 21 22 22 22 22 22 22 22 22 22 22 22 23 22 22 22 22 22 22 22 22 22 22 22 21 20 20 20 20
21 22 22 22 22 23 22 21 21 21 22 21 22 22 21 22 22 23 23 23 23 22 22 22 22 22 22 22 23 23 23 23 23 23 22 22 22 22 22 22 21 20 20 21
23 23 24 24 23 23 22 21 22 22 22 21 21 21 21 21 22 23 23 24 23 23 23 23 22 22 22 22 23 24 24 24 23 23 23 24 23 22 22 22 22 22 21 21
24 24 25 25 25 23 21 21 22 23 22 22 22 22 21 22 23 23 23 23 23 23 23 23 23 23 23 23 23 23 23 24 24 24 24 24 24 23 22 22 22 22 22 22
24 24 25 25 26 25 23 23 22 22 22 22 22 22 22 23 23 23 23 23 24 24 24 24 24 25 25 25 24 24 24 25 25 25 25 25 25 24 23 23 23 23 23 23
24 24 24 25 26 25 24 23 23 23 23 23 23 24 24 24 24 24 24 25 25 25 24 25 25 25 25 25 25 25 25 26 25 26 26 25 24 24 24 24 24 24 24 24
24 24 25 25 25 25 25 25 25 25 25 25 25 26 26 25 25 25 26 26 26 25 25 25 25 25 25 26 26 26 26 26 25 25 25 25 25 25 25 25 26 26 26 26
26 26 26 26 25 26 26 26 26 26 26 25 25 26 26 26 26 26 27 26 26 26 26 26 27 27 27 27 27 26 25 24 24 24 24 24 24 24 25 26 26 27 27 27
26 27 26 26 26 27 27 27 27 27 27 26 26 26 26 27 27 27 27 26 26 27 27 27 27 28 27 27 26 26 25 24 24 24 24 24 24 25 25 26 26 27 27 27
27 27 27 26 27 28 28 28 28 28 27 27 26 26 27 27 27 27 27 27 27 28 28 28 27 27 27 27 26 26 25 25 25 25 25 25 25 25 26 26 27 27 28 28
Wind_Direction
255 252 253 254 256 259 261 264 266 265 264 265 259 255 267 273 277 279 281 283 287 292 294 293 295 297 300 303 303 301 300 301 302 305 306 305 304 305 305 304 305 305 304 302
252 253 252 254 257 258 259 262 267 269 267 268 269 267 270 273 276 280 283 286 286 288 294 297 297 298 299 301 300 298 296 297 298 301 304 303 301 300 299 299 299 299 300 300
254 249 249 252 257 259 261 265 266 264 264 268 273 274 274 276 277 277 281 284 289 289 291 294 297 298 297 298 297 296 293 294 295 297 298 298 297 298 297 295 295 296 295 295
253 248 248 248 252 259 263 264 264 265 266 267 271 273 271 272 275 277 278 279 284 287 288 291 294 297 296 295 294 293 291 292 293 295 295 295 296 298 297 294 294 293 291 291
257 254 252 252 254 259 263 265 265 267 268 269 269 271 270 264 267 271 275 278 279 281 285 288 289 290 292 292 291 289 289 289 290 292 292 293 294 296 296 294 293 291 289 288
253 254 254 255 255 258 260 261 263 265 267 269 274 273 268 265 268 271 276 277 278 280 285 289 290 288 286 288 289 289 287 287 287 288 290 291 292 292 293 293 291 289 288 287
252 254 255 254 255 258 261 262 262 263 265 270 275 274 275 272 271 272 275 277 279 280 282 285 287 288 287 286 287 288 287 285 285 286 286 287 289 289 289 290 289 289 288 286
255 254 255 255 255 258 261 263 263 266 268 272 272 273 276 276 275 274 279 281 279 278 279 280 283 285 286 285 285 285 285 285 284 284 284 284 285 286 285 285 286 287 286 284
260 257 256 257 257 257 258 262 265 267 270 270 270 274 277 279 277 277 279 283 280 277 278 279 281 282 283 284 284 285 286 286 284 284 284 283 282 282 283 283 284 284 284 283
263 261 259 259 258 258 263 263 265 266 269 272 274 276 280 281 278 279 280 282 280 279 280 282 282 282 282 283 285 285 285 285 285 285 282 282 281 280 280 282 283 283 282 281
267 266 264 265 266 268 262 263 267 267 268 271 275 277 282 281 280 279 279 281 280 281 283 283 283 284 282 282 284 284 283 282 282 282 280 279 280 280 281 281 281 281 282 281
267 268 268 267 269 269 269 270 270 270 272 274 278 278 279 279 281 282 281 281 282 283 283 283 283 282 282 282 283 282 281 280 280 280 279 278 277 279 281 281 282 281 281 280
265 267 271 271 270 268 269 269 270 272 274 277 277 279 278 279 280 281 281 282 281 282 282 282 283 283 282 282 282 281 278 278 278 278 278 277 277 277 279 281 282 281 280 280
263 266 270 273 274 273 270 270 272 275 275 277 278 280 280 279 279 281 282 281 280 282 283 282 282 282 282 282 282 281 278 277 276 276 277 276 276 275 277 278 278 278 277 279
263 266 268 270 272 275 276 274 272 274 276 278 279 280 282 280 281 281 280 279 280 281 283 281 282 282 282 281 281 280 278 278 276 276 276 275 274 274 275 276 275 275 276 275
265 265 267 270 272 275 277 276 273 274 279 280 280 281 281 281 280 280 281 281 282 281 281 281 282 282 281 281 279 277 277 278 277 276 275 274 273 272 273 275 273 273 273 273
265 267 268 269 273 274 275 277 277 275 279 279 278 279 279 280 280 281 282 284 284 283 282 282 283 282 282 282 279 276 275 276 277 276 276 276 275 274 272 274 271 271 272 273
268 270 272 272 274 274 278 278 278 277 278 278 278 278 276 277 279 281 282 283 283 285 284 283 283 282 282 282 280 279 276 275 275 275 275 276 276 275 273 270 270 270 271 272
271 271 273 274 276 275 277 278 278 277 278 278 277 279 279 279 281 281 282 283 282 283 283 282 282 282 282 281 282 279 277 275 274 274 275 275 275 274 272 270 269 270 271 271
270 271 272 274 276 276 278 279 278 277 276 275 277 278 279 281 282 281 281 282 281 281 282 282 281 282 282 280 281 279 278 276 275 273 274 274 274 272 271 270 269 269 269 270
269 271 272 274 276 277 279 279 280 277 279 279 279 280 280 281 281 281 281 280 281 281 281 281 281 281 281 281 280 279 278 277 276 274 274 273 271 270 269 268 269 269 269 270
270 270 271 272 275 276 278 279 279 281 281 282 282 281 281 282 281 280 281 283 283 282 282 283 282 280 280 282 282 281 279 277 276 275 274 271 269 269 269 267 268 268 269 270
271 271 272 272 274 275 276 278 280 281 282 282 282 283 281 281 280 280 282 283 284 281 281 282 281 280 280 281 282 283 281 278 276 275 274 272 270 270 269 268 267 267 268 268
270 271 272 272 273 274 275 276 278 279 281 281 280 281 282 282 281 281 282 282 282 281 279 279 279 279 279 280 281 281 280 278 275 275 275 273 271 270 270 270 269 268 267 267
270 270 271 272 273 274 276 277 277 278 279 280 281 282 282 282 282 281 281 282 282 281 280 279 279 279 279 279 279 277 276 275 275 274 274 272 272 272 272 271 270 269 268 268
268 269 270 271 272 274 275 276 276 277 277 277 277 280 282 282 280 279 281 281 281 280 280 280 280 279 279 279 279 278 277 277 275 274 274 273 272 272 273 272 272 270 269 269
Height
5850 5851 5850 5850 5850 5850 5850 5850 5849 5849 5849 5849 5849 5849 5849 5848 5848 5848 5848 5847 5847 5846 5846 5845 5844 5844 5843 5842 5842 5841 5841 5840 5839 5838 5837 5836 5835 5834 5833 5832 5831 5830 5829 5828
5848 5848 5848 5847 5847 5847 5847 5847 5847 5847 5847 5847 5847 5847 5847 5846 5846 5846 5846 5845 5845 5844 5844 5843 5842 5842 5841 5840 5839 5838 5838 5837 5837 5836 5835 5834 5833 5832 5831 5830 5829 5828 5827 5826
5845 5846 5845 5845 5845 5845 5845 5845 5845 5845 5844 5844 5844 5845 5844 5844 5844 5844 5844 5843 5842 5842 5841 5840 5840 5839 5838 5837 5836 5836 5835 5834 5834 5833 5832 5831 5830 5829 5828 5827 5826 5825 5824 5823
5841 5842 5842 5842 5842 5842 5842 5843 5842 5842 5842 5842 5842 5842 5842 5841 5841 5841 5841 5841 5840 5839 5838 5838 5837 5836 5835 5834 5833 5832 5832 5831 5830 5830 5829 5828 5827 5826 5825 5824 5823 5823 5822 5821
5839 5839 5839 5839 5840 5839 5840 5840 5840 5839 5839 5839 5838 5839 5840 5838 5838 5838 5838 5837 5837 5836 5835 5835 5834 5833 5832 5831 5830 5829 5829 5828 5827 5826 5826 5825 5824 5823 5822 5821 5820 5819 5818 5818
5836 5836 5836 5836 5836 5837 5837 5837 5837 5836 5836 5836 5835 5835 5836 5835 5835 5834 5834 5834 5833 5832 5832 5831 5830 5830 5829 5828 5827 5826 5825 5824 5823 5823 5822 5821 5820 5819 5818 5817 5816 5816 5815 5814
5832 5833 5833 5833 5833 5834 5834 5834 5834 5833 5832 5832 5832 5831 5832 5832 5831 5831 5830 5829 5829 5828 5828 5827 5826 5825 5824 5823 5823 5822 5821 5820 5819 5818 5818 5817 5816 5815 5814 5813 5812 5812 5811 5810
5829 5830 5830 5830 5830 5830 5830 5831 5831 5830 5829 5828 5828 5827 5828 5827 5827 5826 5826 5825 5824 5823 5823 5822 5821 5820 5820 5819 5818 5817 5816 5815 5815 5814 5813 5812 5812 5811 5810 5809 5808 5807 5807 5806
5825 5826 5827 5826 5826 5826 5826 5826 5826 5826 5825 5824 5823 5823 5823 5823 5822 5822 5821 5820 5820 5819 5818 5817 5816 5816 5815 5814 5813 5812 5811 5810 5809 5809 5808 5807 5807 5806 5805 5804 5803 5803 5802 5801
5821 5822 5823 5823 5823 5822 5822 5822 5822 5821 5820 5819 5819 5818 5819 5818 5817 5817 5816 5815 5815 5814 5813 5812 5811 5810 5810 5809 5808 5807 5806 5805 5804 5803 5803 5802 5801 5801 5800 5799 5798 5797 5797 5796
5817 5818 5819 5818 5818 5818 5818 5818 5816 5816 5815 5815 5813 5816 5814 5813 5812 5812 5811 5810 5809 5808 5807 5806 5805 5804 5804 5803 5802 5801 5800 5800 5799 5798 5797 5796 5796 5795 5794 5794 5793 5792 5791 5790
5813 5813 5813 5814 5814 5813 5813 5812 5812 5811 5810 5809 5808 5812 5809 5807 5806 5806 5805 5804 5803 5802 5801 5800 5799 5798 5798 5797 5796 5795 5795 5794 5793 5792 5791 5791 5790 5789 5789 5788 5786 5786 5785 5784
5808 5808 5808 5808 5810 5809 5808 5807 5806 5805 5805 5803 5803 5805 5803 5801 5801 5800 5799 5798 5797 5796 5795 5794 5793 5792 5791 5791 5790 5789 5788 5787 5787 5786 5785 5784 5784 5783 5782 5781 5780 5780 5779 5778
5803 5803 5804 5804 5803 5802 5802 5801 5800 5799 5798 5797 5797 5797 5796 5795 5794 5794 5793 5792 5791 5790 5789 5788 5787 5786 5785 5784 5783 5782 5782 5781 5780 5779 5779 5778 5777 5777 5776 5775 5774 5774 5773 5772
5798 5798 5797 5797 5797 5796 5796 5795 5795 5793 5792 5792 5791 5790 5790 5789 5788 5788 5787 5786 5785 5784 5783 5782 5781 5780 5779 5778 5777 5776 5775 5774 5773 5773 5772 5771 5771 5770 5770 5769 5768 5768 5767 5767
5792 5792 5792 5792 5791 5790 5789 5789 5788 5787 5786 5785 5784 5784 5783 5782 5781 5781 5780 5779 5779 5778 5777 5776 5774 5773 5772 5771 5770 5769 5768 5767 5767 5766 5765 5765 5764 5764 5763 5763 5762 5762 5761 5760
5786 5786 5786 5786 5785 5783 5783 5783 5782 5781 5780 5779 5778 5779 5777 5776 5775 5774 5773 5772 5771 5770 5770 5768 5767 5766 5765 5764 5763 5762 5761 5761 5760 5759 5758 5758 5757 5757 5756 5756 5756 5755 5755 5754
5780 5779 5779 5779 5779 5777 5780 5777 5775 5774 5774 5772 5772 5771 5771 5770 5769 5768 5767 5766 5765 5764 5762 5761 5760 5759 5758 5757 5756 5755 5754 5754 5753 5752 5752 5751 5750 5750 5749 5749 5749 5749 5748 5748
5773 5773 5772 5772 5771 5770 5772 5770 5769 5768 5767 5767 5766 5765 5764 5764 5763 5761 5760 5759 5758 5757 5756 5754 5754 5753 5752 5751 5749 5748 5747 5746 5746 5745 5744 5744 5743 5743 5742 5742 5742 5742 5742 5741
5766 5766 5766 5764 5763 5763 5766 5764 5762 5762 5760 5760 5759 5758 5758 5756 5756 5755 5754 5752 5751 5750 5749 5747 5746 5745 5745 5743 5742 5741 5740 5739 5738 5738 5737 5736 5736 5735 5735 5735 5735 5735 5735 5734
5759 5759 5758 5757 5755 5756 5758 5757 5755 5755 5755 5753 5752 5751 5750 5749 5749 5748 5746 5745 5744 5743 5741 5740 5739 5738 5737 5736 5735 5733 5733 5732 5731 5730 5729 5729 5728 5728 5728 5727 5727 5727 5727 5727
5751 5751 5750 5749 5749 5751 5750 5748 5748 5747 5746 5745 5744 5743 5742 5741 5740 5739 5738 5737 5736 5735 5734 5732 5731 5730 5729 5728 5726 5725 5724 5723 5723 5722 5721 5721 5720 5720 5720 5720 5720 5720 5720 5720
5743 5744 5743 5743 5744 5742 5741 5740 5740 5739 5738 5737 5736 5735 5734 5733 5732 5731 5730 5729 5728 5726 5725 5724 5723 5722 5721 5720 5718 5717 5716 5715 5715 5714 5713 5712 5712 5712 5712 5712 5712 5712 5712 5712
5736 5735 5734 5734 5734 5734 5733 5732 5732 5731 5730 5729 5728 5727 5726 5725 5724 5723 5722 5721 5720 5718 5717 5716 5715 5714 5713 5711 5710 5709 5708 5707 5706 5706 5705 5704 5704 5703 5703 5703 5703 5703 5703 5703
5728 5727 5726 5726 5726 5725 5725 5724 5723 5722 5721 5721 5720 5719 5717 5716 5715 5714 5713 5712 5711 5710 5708 5707 5706 5705 5704 5703 5702 5701 5700 5699 5698 5698 5697 5696 5695 5695 5695 5694 5694 5694 5694 5694
5719 5718 5718 5718 5718 5717 5717 5716 5715 5714 5713 5712 5711 5710 5709 5707 5706 5705 5704 5702 5701 5700 5699 5698 5698 5697 5695 5694 5693 5693 5692 5691 5690 5689 5689 5688 5687 5687 5686 5686 5685 5685 5685 5685